Wind_Speed
12 12 13 13 13 12 12 12 12 12 11 10 10 10 10 11 12 13 12 12 11 11 12 15 16 17 19 21 23 23 22 22 20 18 17 16 16 17 18 18 18 18 18 17 15 14 13 12 12 12 12 12 12 12 12 13 13 13 13 13 12 11 10 9 8 7 7 6 5 5 5 5 6 6 6 5 5 5 5 5 5 5 4 3 3
11 12 13 13 13 12 12 12 12 12 11 11 11 11 11 12 14 14 14 14 14 13 14 14 16 17 18 21 24 24 23 22 22 20 18 17 17 17 18 19 18 18 18 18 17 15 14 13 12 12 12 12 13 13 13 13 12 12 12 12 12 11 9 8 8 7 7 6 6 6 5 5 6 6 6 5 5 6 6 5 5 4 4 3 3
11 12 12 13 13 13 12 12 12 12 11 11 11 11 12 13 14 15 15 15 15 15 15 15 17 18 19 21 24 26 25 23 23 21 19 18 18 18 18 18 18 18 18 18 18 17 16 14 12 12 12 12 12 13 13 13 12 11 12 12 12 11 10 8 7 7 7 6 6 6 6 5 6 6 6 5 6 6 6 5 4 4 4 3 3
11 12 12 13 13 13 13 13 13 13 12 12 12 12 12 13 14 15 16 16 16 16 15 16 17 18 20 22 23 26 26 24 23 22 21 19 19 19 18 18 18 18 19 19 19 18 17 16 13 12 12 13 12 12 13 13 12 11 11 11 11 11 10 9 8 7 7 7 7 7 6 6 6 6 6 6 6 6 5 5 4 4 4 3 4
11 11 12 12 12 13 13 13 14 14 14 13 13 13 14 14 15 16 16 17 17 17 16 17 17 18 20 22 22 24 26 25 24 23 22 21 19 19 19 19 19 19 19 19 19 19 19 17 15 13 13 13 12 12 13 13 12 11 10 10 10 10 10 9 8 8 8 7 7 7 7 6 7 6 6 6 6 5 5 5 4 5 4 4 4
10 11 11 11 12 12 13 13 14 15 15 15 15 15 15 16 17 17 17 17 18 17 17 18 18 19 20 21 21 22 24 25 25 24 23 22 20 19 19 19 19 19 19 20 20 20 19 19 17 15 13 13 13 12 13 13 13 12 10 10 9 9 9 9 9 8 8 8 8 8 7 7 7 6 6 6 6 5 5 5 5 4 4 4 4
10 11 11 11 11 12 12 13 14 15 16 16 16 16 16 17 17 18 18 18 18 18 19 19 19 19 21 21 21 22 22 25 25 25 24 22 20 19 19 20 20 20 20 20 20 20 20 20 19 17 14 14 14 13 13 13 13 12 11 10 9 9 9 10 9 9 8 8 8 8 7 7 6 6 6 6 6 5 5 5 5 4 4 4 4
11 11 12 12 12 13 13 14 14 15 16 16 16 17 17 18 17 18 19 19 19 20 20 19 20 21 22 23 23 22 22 24 26 26 25 23 22 21 20 20 20 20 20 20 20 20 20 20 20 18 16 14 14 14 13 13 13 12 11 10 9 9 9 10 10 9 8 8 8 8 8 7 6 6 6 6 6 6 6 5 5 5 5 5 4
12 12 13 13 13 14 14 15 15 16 17 17 17 18 18 19 19 18 19 20 21 21 20 20 20 21 22 24 23 23 23 24 26 26 25 24 24 23 22 21 20 20 20 20 20 20 20 21 21 20 18 16 15 15 14 14 13 13 12 11 10 9 10 10 10 9 8 8 8 8 8 7 6 5 5 6 6 7 6 6 6 5 5 5 4
13 13 14 14 15 15 14 15 16 17 17 18 18 19 19 20 20 20 20 21 22 22 22 21 21 22 22 24 24 23 23 23 26 27 25 25 25 26 26 24 23 22 21 20 21 20 19 21 21 21 20 18 16 15 15 14 14 14 13 12 11 10 10 10 10 9 9 9 8 9 9 8 7 6 6 6 7 7 7 7 6 6 6 5 5
14 14 15 16 17 17 16 16 17 18 18 19 18 19 20 20 21 21 21 22 23 24 24 24 24 24 23 24 24 22 22 21 22 26 27 27 27 28 28 28 26 25 23 22 22 21 20 21 22 22 21 20 17 16 16 15 14 14 14 13 12 11 11 11 11 10 10 10 10 10 9 8 8 7 7 7 8 8 8 7 7 6 6 6 5
15 16 16 17 18 18 17 17 17 18 19 20 20 20 20 20 20 21 21 22 23 24 25 25 25 26 25 24 24 22 22 22 22 24 27 29 30 30 29 29 29 28 27 25 24 23 22 21 22 23 23 22 20 17 17 16 15 15 15 14 13 12 12 12 12 11 11 11 11 10 10 9 8 8 7 7 8 8 8 8 8 7 6 6 6
16 17 17 18 19 19 18 18 18 19 20 21 21 21 21 21 20 20 21 21 22 23 24 24 24 25 25 24 23 23 22 23 24 25 26 29 31 32 31 30 30 31 30 29 27 25 24 24 24 24 24 23 22 20 18 17 17 16 16 15 14 13 13 13 13 12 11 12 12 12 11 10 9 8 7 7 8 8 8 8 8 7 7 7 7
17 17 18 19 19 19 19 19 19 19 20 21 22 22 22 22 21 21 21 21 21 22 22 23 23 24 25 24 23 24 23 23 25 27 28 29 29 31 32 31 31 32 32 32 30 28 28 27 26 25 26 25 24 22 20 19 18 17 17 16 15 15 14 14 14 13 12 12 13 13 12 11 10 8 8 8 8 8 9 9 8 8 8 8 8
17 18 18 19 19 19 20 20 20 20 21 21 22 23 23 23 22 22 22 22 22 23 23 22 22 23 23 23 23 23 23 24 26 28 30 29 29 29 31 32 34 34 33 33 32 31 31 29 27 27 27 27 26 25 22 21 20 19 18 17 17 16 15 15 15 14 13 13 13 13 13 12 10 9 9 8 9 9 9 9 9 8 8 8 8
17 18 19 19 19 20 21 21 21 21 21 22 22 23 23 23 23 23 23 23 23 24 24 23 23 23 23 23 23 22 23 26 27 28 30 31 30 30 30 32 34 34 34 34 33 33 33 32 31 29 28 28 28 26 25 23 21 20 19 18 18 18 17 16 16 15 14 13 13 13 13 13 11 10 9 9 9 9 9 9 9 9 9 8 9
18 19 19 19 20 20 21 22 22 22 22 22 23 23 24 23 23 24 23 23 23 24 25 26 25 25 24 23 24 24 24 26 27 28 30 31 31 31 31 31 31 33 34 34 34 34 34 33 33 32 30 29 28 28 27 25 23 22 21 19 19 19 18 18 17 16 15 14 13 13 13 13 12 11 10 10 10 10 10 10 10 10 9 9 9
18 19 19 20 20 21 22 22 23 23 23 23 23 23 24 24 25 25 25 24 24 24 25 26 26 26 26 25 25 26 26 26 26 27 30 32 31 30 31 31 30 31 33 34 35 35 35 34 34 33 32 31 29 29 28 27 25 24 22 21 20 19 19 19 18 18 17 16 14 13 13 14 13 12 11 11 11 11 11 11 11 11 10 10 10
19 19 19 20 21 21 22 23 23 24 24 24 24 24 24 25 26 26 26 26 25 25 25 26 26 27 27 27 26 27 28 28 27 27 28 30 32 31 30 30 31 31 31 33 36 36 36 36 36 34 33 32 31 30 29 28 27 26 24 22 21 20 20 20 20 19 18 17 16 15 14 14 14 13 12 12 12 12 12 12 12 12 11 11 10
19 19 20 20 21 22 22 23 23 24 24 24 24 24 25 26 26 27 27 27 27 26 26 26 26 26 27 27 27 28 29 29 29 28 27 27 30 31 30 30 31 31 30 32 35 36 37 37 37 35 34 33 32 31 30 29 29 28 26 24 23 21 21 21 21 21 19 19 18 16 15 14 14 14 13 13 13 13 13 13 13 12 12 12 11
20 20 21 21 21 22 23 23 23 24 24 24 24 24 25 26 26 27 28 28 27 27 26 26 26 26 26 26 27 28 29 29 29 29 28 27 28 29 30 31 31 30 31 33 35 37 38 38 38 36 34 33 32 31 30 30 30 29 28 26 24 23 22 22 22 22 21 21 20 18 16 15 15 15 14 14 14 14 14 14 14 13 13 13 13
20 20 21 22 22 23 24 24 24 24 24 24 25 25 25 26 26 27 27 28 28 27 27 26 26 27 27 27 27 28 29 29 29 29 29 28 28 29 31 32 32 30 32 34 37 38 38 39 39 37 34 33 32 31 31 31 31 31 30 28 26 24 23 23 23 23 23 23 21 19 18 17 16 15 15 15 16 15 15 15 15 14 14 15 15
21 21 22 23 23 24 24 24 24 24 24 25 25 26 26 26 27 27 27 27 28 28 27 27 27 27 27 27 28 29 29 30 30 29 29 30 30 29 32 34 34 33 33 34 37 39 38 38 39 38 36 35 33 32 32 33 32 31 31 30 28 27 25 24 24 24 24 24 22 21 20 19 17 17 16 16 16 17 17 16 16 16 15 16 16
22 23 23 24 24 25 25 25 25 25 25 25 26 26 27 27 27 27 27 28 28 28 28 27 27 27 28 28 28 29 30 30 30 30 30 30 30 30 31 34 35 35 35 34 36 40 40 39 38 38 38 37 34 32 32 33 33 33 32 32 31 30 28 26 25 25 25 25 24 23 22 20 19 18 17 16 17 17 18 18 17 17 16 16 16
23 24 25 25 25 26 26 26 26 26 26 26 27 27 27 27 28 28 28 28 29 29 28 28 28 28 28 29 29 29 30 30 31 31 30 30 30 30 30 32 33 33 34 35 35 38 39 38 36 36 39 38 34 33 33 33 34 34 34 34 33 32 30 28 27 26 26 26 25 24 24 22 21 20 19 17 17 17 18 19 19 18 18 17 17
24 25 25 26 26 26 26 26 26 27 27 27 27 28 28 28 28 28 28 29 29 29 29 29 29 29 29 29 30 30 30 30 30 30 30 30 30 30 30 31 32 32 32 31 31 34 36 35 35 35 38 38 36 35 34 34 35 36 36 36 35 34 33 30 29 27 27 27 27 26 25 24 23 22 20 19 18 17 18 19 20 20 19 18 18
25 25 26 26 27 27 27 27 27 27 28 28 28 28 28 28 29 29 29 29 29 29 30 30 30 29 29 29 30 30 30 29 28 29 29 29 29 29 30 29 29 31 31 29 27 30 34 34 35 35 37 39 39 37 36 36 37 38 38 37 37 36 35 32 31 29 28 28 28 28 27 26 25 23 22 21 20 18 18 19 20 21 20 20 19
26 26 26 27 27 27 27 27 27 28 28 29 29 29 29 29 29 30 30 30 30 30 30 30 30 30 30 29 30 31 31 30 28 28 28 28 28 29 30 29 29 29 31 30 26 26 32 35 34 34 36 38 40 40 40 38 38 39 38 38 38 37 37 35 32 31 30 29 29 29 29 27 26 25 23 22 22 20 19 19 20 21 21 21 21
26 27 27 27 27 28 28 28 28 28 29 29 29 30 30 30 30 30 31 31 31 31 31 30 30 31 30 30 30 31 32 31 29 29 28 28 28 28 29 29 30 29 29 30 27 24 29 34 34 34 35 37 39 41 42 40 40 40 39 40 41 40 38 36 34 33 32 30 30 31 30 29 28 26 25 24 24 22 21 19 20 21 22 22 22
27 27 28 28 28 28 29 29 29 29 29 29 30 30 30 30 31 31 32 32 32 32 32 31 31 31 31 31 31 31 32 32 31 30 29 28 27 28 29 29 30 30 29 29 27 24 25 30 33 35 35 36 39 43 45 43 44 44 43 43 43 41 40 39 35 34 34 32 31 31 31 30 29 28 27 27 26 24 23 21 20 21 22 23 23
29 29 30 30 30 30 29 30 30 30 30 30 30 30 31 31 32 32 33 33 33 33 34 33 32 32 31 32 32 32 32 33 32 31 30 30 29 27 28 29 29 30 29 29 27 24 24 28 32 35 35 35 39 43 45 46 48 48 46 45 43 41 42 41 37 35 35 33 32 32 32 32 31 30 29 29 28 27 25 23 22 21 22 23 24
30 31 31 32 32 32 31 31 31 31 31 30 31 31 32 32 32 33 33 34 34 34 35 35 34 34 33 33 33 32 32 33 33 33 32 31 31 29 28 28 28 30 30 30 28 25 23 26 31 34 33 35 38 40 41 44 48 49 47 45 43 42 43 42 39 36 35 34 33 32 33 33 32 32 31 30 30 29 27 25 24 23 23 23 24
32 32 32 33 33 33 33 33 33 32 32 32 32 32 33 33 34 34 34 34 35 35 35 36 36 36 35 34 34 33 33 33 33 34 33 33 32 31 30 28 28 28 30 30 29 27 25 24 28 33 33 34 37 39 40 43 46 47 46 45 43 43 44 43 40 38 36 35 35 34 34 34 34 34 33 32 32 30 29 27 26 25 24 24 25
33 33 34 34 35 35 35 34 34 34 34 33 33 33 34 34 34 35 35 35 35 35 36 36 37 37 37 36 36 35 34 33 34 35 34 34 34 33 31 30 28 27 29 30 30 31 30 25 25 31 35 36 37 38 40 43 44 45 45 44 42 42 44 44 42 40 37 36 37 36 35 35 35 35 35 33 33 32 31 30 28 27 26 25 25
35 35 36 36 36 36 35 35 35 35 35 35 35 35 35 35 35 35 35 35 36 36 36 37 37 37 38 38 38 37 36 34 35 36 36 35 35 34 33 32 30 28 28 29 30 31 32 29 27 29 32 35 38 40 44 45 44 44 44 42 42 42 44 45 43 41 40 39 39 39 37 37 37 36 36 35 34 33 33 32 30 29 28 27 27
37 37 37 37 37 37 37 36 36 36 36 36 36 36 36 36 36 36 36 37 37 37 37 37 38 38 38 38 39 39 38 37 35 36 37 37 36 35 34 33 32 30 28 28 29 30 32 32 30 30 30 32 34 37 44 47 45 44 43 41 42 43 44 45 44 44 43 42 41 40 39 38 38 38 37 36 35 35 34 33 33 31 30 29 28
39 39 38 38 38 38 38 38 37 37 37 37 37 37 37 37 37 38 38 38 38 38 39 39 39 39 39 39 40 40 40 39 38 36 37 37 38 37 36 35 34 32 30 28 28 30 32 32 32 31 29 30 31 32 37 43 46 46 44 42 42 43 45 45 45 45 46 44 42 41 41 40 40 39 38 36 36 35 35 35 34 33 32 31 30
39 39 38 38 38 38 38 38 38 37 37 38 38 38 38 38 38 38 38 39 39 39 39 40 40 40 40 41 41 41 41 41 40 39 38 38 38 38 37 37 36 34 32 30 29 29 31 32 33 33 30 28 30 31 32 35 42 46 45 44 43 43 45 46 45 45 45 44 42 42 42 42 41 40 39 38 37 37 37 37 36 36 35 33 32
38 38 38 37 37 37 38 38 38 38 38 38 38 38 38 38 38 38 38 39 40 40 41 41 41 41 42 42 42 42 42 42 42 41 40 39 39 39 39 38 37 36 35 33 31 30 30 31 33 35 34 31 30 31 31 33 38 43 44 44 44 44 45 46 45 44 44 44 44 45 44 44 43 41 40 40 39 38 38 38 38 37 36 34 33
38 37 37 37 37 37 38 38 38 38 38 37 37 37 37 38 38 39 39 40 40 41 42 43 43 43 43 43 44 44 44 43 43 42 42 41 40 39 40 40 39 37 36 35 34 32 31 31 31 33 36 36 33 31 31 32 35 39 40 41 43 44 44 44 44 44 45 46 46 45 46 46 43 41 41 41 40 39 39 39 39 38 37 35 35
37 37 37 37 37 38 38 38 38 38 38 37 37 37 37 38 38 39 40 41 41 42 43 44 44 45 45 45 45 45 45 45 45 44 44 43 42 40 40 41 41 39 38 37 36 35 33 32 31 31 34 38 36 32 30 30 32 37 40 40 40 41 42 42 44 46 47 48 47 45 47 47 44 41 42 43 41 39 39 40 40 39 38 36 36
37 37 37 37 37 38 38 38 38 38 38 38 38 39 39 39 40 41 42 43 44 44 45 45 46 47 48 48 48 48 48 47 47 47 46 45 45 43 41 41 42 41 40 38 37 36 35 34 32 32 33 36 37 34 31 30 31 34 40 42 42 41 41 41 44 46 47 49 48 48 49 49 46 43 43 45 43 41 40 40 40 40 38 38 38
37 37 37 37 37 37 37 38 38 38 38 39 40 40 41 42 43 43 44 44 45 46 46 47 47 48 49 50 51 51 51 51 50 49 49 48 47 46 44 43 43 43 42 41 39 38 37 36 34 33 32 33 36 35 32 31 30 31 36 42 45 46 45 44 45 46 47 49 50 50 50 50 47 45 45 46 46 44 42 41 41 41 40 40 40
37 37 37 37 37 37 37 38 38 39 40 41 42 42 43 43 43 43 43 43 44 44 45 45 46 47 47 48 50 51 52 53 52 52 51 51 50 49 47 45 44 44 44 43 41 40 39 38 37 35 33 33 35 36 34 32 31 30 31 36 42 47 47 46 47 48 48 49 51 51 51 50 49 47 46 46 46 45 44 43 43 43 43 43 43
36 36 36 36 37 37 37 38 39 40 41 42 42 42 41 41 41 41 42 42 42 43 43 44 45 46 46 47 48 49 50 52 53 53 53 53 53 52 50 49 46 46 46 45 43 42 40 40 38 37 36 35 34 35 35 34 33 31 30 31 36 44 48 47 46 47 47 48 51 51 51 51 50 48 47 47 47 47 45 44 45 45 45 45 46
35 35 36 36 36 37 38 39 40 41 41 40 40 40 39 39 40 40 41 42 42 43 44 45 46 47 48 48 49 49 50 51 52 53 53 53 54 54 53 52 50 47 46 46 46 44 42 41 40 38 38 37 35 35 35 34 33 31 31 31 31 35 43 46 45 44 44 45 48 51 51 51 50 49 48 48 49 49 47 46 46 46 45 46 48
35 35 35 35 36 37 38 40 40 39 39 38 38 38 39 39 40 41 42 43 44 45 46 47 48 49 50 51 51 52 52 52 53 53 53 54 54 54 54 54 53 50 48 47 47 46 45 43 42 40 39 38 37 36 35 35 34 32 32 32 30 29 33 39 43 44 44 44 46 48 50 50 49 49 49 48 49 49 48 47 47 47 47 49 50
34 34 34 35 36 38 38 38 38 37 37 37 38 38 39 40 41 42 44 44 45 46 47 48 49 50 51 52 53 54 54 54 54 54 54 54 54 54 54 53 54 53 50 48 48 47 47 46 44 42 41 40 39 38 37 35 34 33 33 33 33 31 30 33 38 42 45 46 47 48 48 50 51 51 50 49 49 49 48 48 48 48 49 50 51
33 34 35 36 37 37 36 36 35 35 36 36 37 38 39 40 41 42 43 44 45 46 47 48 49 51 52 52 53 54 54 55 55 55 55 54 54 54 53 53 53 54 52 50 49 48 48 48 46 44 42 41 40 40 39 37 37 36 35 34 33 32 32 32 34 37 42 46 48 49 50 50 51 52 52 51 50 50 49 49 49 50 50 50 52
33 34 35 35 35 35 34 34 34 35 36 37 38 39 39 40 41 42 43 44 45 46 47 48 49 49 50 51 52 52 53 54 54 54 54 53 53 53 53 52 52 53 53 52 50 49 48 49 48 46 43 42 41 41 41 40 39 38 37 36 35 33 32 32 32 35 38 43 46 48 50 51 52 53 53 52 52 51 50 50 50 51 52 53 54
33 34 34 34 33 33 33 34 34 35 36 37 38 39 39 40 41 42 42 43 44 44 45 46 47 48 49 50 51 51 52 52 52 52 52 52 51 51 51 51 51 52 53 54 52 50 49 49 49 46 44 43 42 42 42 42 41 40 38 37 36 35 33 33 33 34 35 38 42 47 49 48 48 50 51 52 53 52 52 52 52 51 53 55 57
Wind_Direction
310 315 315 315 317 319 323 326 323 318 316 314 309 303 297 296 297 299 300 299 297 295 293 291 288 282 276 274 274 275 279 283 285 285 284 281 279 278 277 277 275 273 271 269 269 273 275 278 282 289 296 300 302 305 309 311 311 313 315 317 318 316 314 312 310 303 294 284 273 264 263 266 271 274 276 277 274 272 277 282 286 287 283 284 289
313 316 315 316 318 321 326 328 322 318 319 317 312 307 302 300 300 301 302 301 298 296 294 291 289 286 279 273 273 273 274 278 281 284 284 282 279 277 277 276 275 274 271 270 270 272 275 277 281 286 293 298 300 304 309 313 311 311 313 313 314 313 310 311 309 303 296 286 272 261 257 261 267 270 271 274 274 278 284 286 283 279 278 282 285
312 314 315 317 320 324 329 329 322 320 322 320 316 314 310 306 304 304 304 305 304 301 297 294 290 289 286 278 272 271 272 274 277 281 282 280 277 275 275 275 274 273 272 271 271 272 274 276 279 282 287 293 297 301 307 311 311 309 310 311 311 310 308 306 304 301 297 287 275 264 256 256 259 263 266 269 273 281 286 284 278 275 278 280 280
310 312 314 316 319 323 327 326 322 321 324 323 321 321 318 314 310 307 305 304 304 302 298 295 292 291 290 287 276 268 268 271 273 277 280 279 277 274 275 275 274 273 271 270 270 270 273 276 278 280 283 289 295 300 304 308 309 307 307 308 308 308 305 301 300 299 296 288 278 267 257 254 256 259 262 266 272 278 279 276 273 273 274 271 275
308 311 312 313 315 317 320 322 321 321 324 325 324 323 322 321 318 314 309 305 303 302 299 295 292 291 291 292 287 272 263 265 269 271 276 278 277 276 275 276 274 272 270 269 269 268 270 273 276 278 281 285 291 297 300 303 305 305 305 305 305 304 301 296 296 296 295 288 279 269 262 258 258 260 264 267 269 268 265 264 266 266 262 264 274
307 308 309 310 311 313 316 318 319 321 322 324 324 322 320 319 318 314 310 307 303 301 301 298 296 298 297 294 294 285 265 259 264 266 269 273 277 277 274 274 273 272 270 268 268 268 268 271 273 275 278 282 287 291 295 298 301 303 303 302 300 298 295 291 290 291 291 288 281 274 268 263 261 263 264 265 263 256 253 256 257 252 250 260 274
304 304 306 307 308 310 313 315 316 317 318 319 320 319 316 314 312 311 309 307 304 300 299 299 299 302 303 297 294 291 270 255 259 262 263 267 270 272 270 270 271 271 270 269 268 269 269 270 270 272 274 278 282 285 289 293 297 299 299 299 296 292 289 286 286 286 286 286 284 280 275 269 263 263 262 259 254 250 249 248 245 238 242 258 270
300 302 304 306 307 308 310 313 314 315 315 315 316 315 313 312 310 309 308 306 303 300 297 298 301 299 298 298 295 292 274 254 255 260 263 266 265 265 266 266 267 269 269 269 269 269 270 270 270 270 271 274 277 281 285 289 292 294 295 294 292 288 284 282 283 282 281 282 283 282 278 273 266 262 259 256 251 250 249 243 236 230 235 249 259
300 302 305 306 306 306 308 311 313 314 314 314 315 314 314 313 311 310 308 305 302 300 299 298 299 297 294 295 293 292 281 257 252 260 264 266 264 262 264 265 265 264 265 269 269 268 270 271 270 270 269 270 273 277 280 284 287 289 290 290 288 284 281 280 279 279 279 279 280 280 279 276 270 264 258 256 254 253 250 243 234 228 231 238 245
301 303 305 305 304 304 306 308 311 313 314 314 314 314 315 314 313 311 308 305 303 301 302 301 298 295 292 291 291 293 290 268 253 258 263 266 265 263 263 265 264 260 260 263 265 266 268 270 270 270 270 269 269 272 275 279 282 284 286 286 284 281 277 276 275 276 278 278 279 278 277 274 269 264 259 257 256 254 251 244 236 230 229 233 235
298 300 302 304 304 305 306 307 310 312 312 311 311 312 313 314 312 310 309 307 306 304 303 303 300 297 293 290 290 290 291 280 265 263 265 266 266 265 265 264 263 259 257 258 261 264 268 270 270 269 270 269 267 267 270 274 278 280 281 281 281 278 274 272 271 273 277 280 280 278 276 273 268 263 259 258 256 253 248 244 240 233 230 232 230
296 298 300 303 303 304 305 307 310 310 310 310 310 310 310 311 310 308 308 308 307 306 306 306 304 301 297 292 290 286 283 280 276 274 273 269 267 266 265 265 263 260 258 259 261 264 265 267 268 267 268 268 266 264 266 269 272 275 275 277 279 277 272 270 269 270 274 278 279 277 275 273 268 264 259 256 254 251 246 243 240 236 235 234 228
293 296 298 300 301 302 304 305 307 307 307 308 308 309 309 309 307 305 305 305 306 306 307 308 306 303 301 297 292 287 282 279 277 275 272 270 269 268 266 265 264 262 261 261 262 264 264 264 267 267 267 267 266 264 263 265 267 270 272 273 275 276 273 270 268 268 270 273 274 275 275 272 268 263 257 253 250 248 245 242 240 238 239 237 227
292 295 297 298 299 300 302 303 304 305 305 306 306 306 306 306 305 304 304 305 306 307 307 307 306 303 302 302 296 290 285 281 277 272 269 268 270 270 268 265 264 263 262 261 262 262 262 263 265 266 267 267 266 264 262 262 265 267 269 269 271 273 273 271 268 266 266 268 270 273 274 270 265 260 253 249 247 245 243 243 242 242 244 240 227
292 295 297 297 299 300 302 302 303 304 303 304 303 303 304 304 304 304 305 307 308 309 308 307 306 305 304 304 300 294 288 280 275 272 271 269 269 269 270 268 264 261 260 261 260 259 261 262 263 264 265 265 264 263 261 260 262 264 265 266 268 270 270 270 268 265 263 264 267 270 271 269 264 257 251 248 245 242 241 243 245 247 249 243 227
293 295 296 297 298 298 300 301 301 302 302 301 301 301 302 303 304 305 306 308 310 311 310 309 308 307 306 305 303 299 292 283 277 274 272 271 269 269 271 271 268 261 257 259 259 258 260 260 260 261 262 263 262 262 260 258 259 261 263 264 265 267 267 267 268 266 264 264 265 267 268 268 263 257 252 248 245 242 241 243 247 250 251 247 232
294 295 295 295 296 297 298 300 301 301 300 299 299 299 301 303 305 306 307 309 311 311 311 311 311 308 308 307 304 300 294 287 282 277 274 271 269 269 270 272 272 265 257 256 258 258 258 258 258 259 260 260 261 260 259 258 257 258 260 261 263 264 264 265 266 265 264 263 263 264 266 267 263 258 253 250 246 244 242 243 247 250 252 251 237
293 293 293 293 295 296 298 300 301 301 300 300 299 301 303 306 307 307 307 308 309 310 310 310 311 310 309 308 305 301 296 292 286 281 276 273 270 268 267 269 273 271 262 256 256 257 257 256 256 257 258 258 259 259 258 257 256 256 257 259 260 261 262 262 262 263 263 262 261 261 263 265 263 258 255 251 247 245 244 244 246 248 250 252 245
293 293 293 293 295 297 299 300 301 301 302 301 302 304 305 306 307 307 308 308 308 308 308 309 310 309 308 308 306 303 300 297 292 286 279 275 273 268 266 268 271 273 267 257 254 256 256 256 256 257 257 256 257 258 257 256 254 254 255 256 258 259 259 260 259 261 262 260 259 259 260 262 262 259 256 251 247 245 245 245 246 247 248 249 250
294 294 293 294 296 297 299 300 301 301 301 302 303 304 304 304 306 307 307 307 307 307 307 308 309 308 307 307 307 304 302 299 295 290 282 276 274 271 268 267 268 271 272 263 257 255 255 255 255 255 256 255 255 255 255 255 253 253 254 254 255 258 258 257 257 258 258 256 256 258 258 260 260 258 255 251 247 245 245 245 244 245 247 248 249
293 294 294 295 296 297 298 299 299 300 300 301 302 302 302 302 304 306 306 307 307 306 307 308 309 309 307 307 307 305 303 300 295 291 286 279 274 272 270 267 265 269 272 268 263 258 255 254 254 253 254 252 251 252 253 253 253 252 253 253 254 256 257 257 256 256 256 255 256 257 257 258 258 257 255 250 247 246 245 245 245 244 245 247 248
293 293 293 294 296 297 297 298 298 299 300 301 301 301 301 301 303 304 306 307 307 307 308 309 310 310 309 308 307 306 304 302 297 293 288 283 277 272 270 269 265 266 269 268 266 261 255 254 253 252 253 252 250 251 252 252 252 251 252 253 253 254 255 256 256 255 255 255 255 255 255 255 255 256 255 251 248 246 246 246 246 244 243 245 247
294 295 295 295 296 297 297 298 299 300 301 301 301 300 300 301 302 304 305 306 306 307 308 310 311 312 311 309 307 305 303 301 299 295 289 285 281 276 272 270 266 266 271 271 267 261 257 255 254 250 250 251 251 252 251 250 250 250 251 252 252 252 253 254 256 255 254 254 254 253 253 254 254 254 254 252 250 248 247 246 246 245 244 244 246
297 297 297 297 297 298 299 300 300 300 301 301 300 300 300 301 302 303 304 305 305 306 308 310 311 312 313 312 310 307 304 302 300 297 292 287 283 280 275 272 268 268 273 275 269 261 257 256 254 250 247 249 251 252 251 249 249 249 249 250 251 251 251 252 255 255 254 253 252 252 252 252 253 254 253 253 251 249 248 247 246 245 244 243 245
299 299 299 299 299 300 300 300 300 300 300 300 300 300 300 300 301 303 304 304 305 306 307 308 310 311 313 313 312 311 309 306 302 299 296 291 286 282 279 274 271 268 271 277 270 258 254 255 255 250 247 248 250 251 251 248 247 249 249 249 250 250 250 251 254 255 255 253 251 251 251 251 252 253 253 253 253 251 249 247 246 245 245 244 244
301 301 301 301 302 301 301 301 301 300 300 300 299 299 299 300 300 302 302 303 303 304 305 306 308 309 311 311 312 313 313 312 307 300 297 295 290 285 282 278 274 269 269 276 269 254 251 254 254 249 245 246 248 249 250 248 246 247 249 248 249 250 250 250 252 254 254 253 251 250 250 250 250 252 253 253 252 252 250 249 248 247 246 244 244
303 303 303 303 303 302 302 302 302 301 300 299 299 299 299 300 300 301 301 302 302 302 303 303 305 306 307 308 309 310 312 314 311 303 296 294 292 289 285 281 276 270 268 274 270 254 248 250 251 250 246 245 247 248 249 248 246 246 247 248 248 249 249 249 250 253 254 253 252 250 249 249 249 250 252 253 253 252 251 250 249 248 247 246 246
304 304 304 303 303 303 302 302 302 301 300 299 299 299 299 300 301 302 302 302 301 301 301 301 302 303 304 305 306 307 309 311 313 308 300 294 292 290 288 283 278 272 269 272 272 259 250 247 248 250 248 247 248 249 249 247 246 247 249 249 248 247 248 247 248 250 252 252 252 251 249 249 249 249 250 252 253 252 251 251 251 250 249 248 247
304 304 304 304 304 303 302 301 301 300 300 299 299 299 300 301 301 302 302 302 302 301 301 301 301 302 302 302 303 304 305 308 310 311 307 300 294 290 289 286 280 275 270 270 271 265 255 248 245 247 248 248 248 250 250 246 244 243 244 246 247 245 245 245 245 247 250 251 251 251 250 249 249 249 249 251 252 252 252 251 252 251 250 249 248
303 303 303 303 303 302 301 301 300 299 299 299 300 300 300 300 300 300 301 301 301 301 301 301 301 301 301 300 300 300 301 304 306 308 308 306 300 294 290 288 283 278 272 270 269 267 260 252 248 246 246 246 247 249 250 246 242 239 237 239 243 243 243 243 243 244 247 249 250 251 251 250 249 249 249 250 251 251 252 251 251 252 251 249 248
301 301 301 301 300 300 301 301 300 300 299 299 300 300 299 299 299 299 299 299 300 300 301 301 301 300 300 299 299 298 299 300 302 304 305 305 304 300 295 291 287 282 275 270 268 266 261 253 249 248 247 248 249 250 252 249 244 239 237 238 240 242 242 242 242 243 246 248 250 251 251 251 250 249 248 249 250 250 251 251 251 251 251 250 249
300 300 299 299 298 299 299 299 300 300 300 300 300 300 299 299 298 297 297 298 298 299 299 300 300 300 299 298 297 297 297 297 298 299 300 301 302 302 299 295 291 286 279 272 266 265 263 256 250 250 250 251 253 255 258 256 248 239 236 237 240 243 244 243 242 242 244 247 249 250 251 251 249 248 247 248 249 250 250 251 250 250 250 250 250
299 299 299 299 298 298 298 298 299 299 299 300 299 299 299 299 299 298 297 297 296 297 297 298 298 299 298 297 296 296 296 295 295 295 296 297 298 299 300 298 295 290 283 275 267 262 263 263 254 251 250 252 254 257 261 260 251 241 236 235 236 240 242 243 242 241 242 244 247 249 250 250 249 248 247 247 248 249 249 250 249 249 249 250 250
298 299 299 299 299 298 298 298 298 298 298 298 298 298 298 299 299 298 298 297 296 296 295 295 296 296 296 296 295 295 295 294 293 293 293 293 293 295 296 297 297 293 286 279 271 263 263 265 260 253 250 250 253 256 260 258 250 241 237 235 234 236 240 242 241 240 240 241 244 246 247 248 248 247 246 246 247 248 248 249 249 248 248 249 251
299 299 300 300 299 298 298 298 298 297 297 297 297 297 298 298 298 298 298 297 296 295 294 293 293 293 294 294 294 294 293 292 292 291 291 290 290 290 291 293 294 294 290 283 276 268 264 263 262 259 255 252 252 254 256 253 245 239 237 236 236 236 237 240 240 240 239 240 242 244 246 246 247 248 247 246 247 248 248 248 249 248 248 248 250
301 300 300 299 299 299 299 298 298 298 298 297 297 297 297 298 297 297 297 296 296 295 294 293 292 291 291 291 291 292 292 291 290 289 289 289 288 288 288 289 290 291 290 286 280 273 267 263 262 263 265 262 258 256 254 249 242 239 238 237 238 237 235 237 240 240 239 239 240 243 245 246 247 247 248 247 247 248 248 248 249 249 248 247 249
300 300 300 301 301 301 300 300 300 300 300 299 299 298 298 297 297 297 296 295 295 294 293 293 292 291 290 289 289 289 289 289 288 287 286 286 286 286 286 286 286 287 288 287 283 276 270 266 261 262 267 267 264 264 259 247 239 238 238 237 238 238 235 236 238 239 238 238 240 243 245 246 248 248 249 248 247 248 248 248 248 249 248 247 247
300 301 302 302 302 302 302 302 302 302 301 301 300 300 299 299 298 297 296 296 295 294 293 292 291 290 289 288 287 286 286 286 285 284 283 283 283 283 284 283 283 284 284 285 285 280 274 268 261 261 265 265 265 268 267 253 240 237 238 238 238 238 237 236 237 238 240 240 240 243 244 246 248 248 249 248 247 247 247 247 247 248 248 248 248
301 302 303 303 303 303 303 303 303 302 302 302 302 301 301 300 299 299 298 297 297 296 295 293 292 290 289 287 286 285 283 283 282 281 280 280 280 280 280 281 281 281 281 281 282 282 279 272 264 261 261 261 263 267 268 261 245 237 237 239 240 239 238 237 237 238 240 241 240 242 243 245 246 248 248 248 247 246 247 248 248 248 249 249 249
303 304 304 304 304 304 304 304 304 304 304 304 303 303 302 302 301 301 300 299 298 298 297 296 294 292 290 289 287 285 284 282 280 279 278 277 276 276 277 277 278 278 278 278 278 279 279 276 269 263 258 258 263 265 264 260 250 240 237 237 238 240 239 239 239 237 238 239 239 241 245 245 246 248 248 247 246 247 248 249 250 250 250 250 250
305 305 305 305 305 306 306 306 306 306 306 305 304 304 303 302 302 301 300 300 299 298 297 296 295 294 292 291 289 287 285 283 281 279 277 275 274 272 272 274 275 275 275 275 275 275 276 276 273 268 260 258 263 265 262 260 253 242 237 234 235 239 242 243 242 238 237 239 238 239 243 244 244 246 246 244 245 246 247 248 250 250 250 251 251
306 305 306 306 307 308 309 309 308 307 306 306 305 304 303 303 302 301 300 299 298 297 295 294 293 292 291 290 289 287 285 284 282 280 278 276 274 272 270 270 271 272 272 272 272 271 271 272 273 271 265 261 264 264 261 260 254 243 237 234 234 237 240 243 244 241 238 238 237 236 238 241 241 241 243 244 246 247 247 248 250 250 251 251 252
306 306 307 308 309 309 309 308 307 307 306 305 305 304 304 303 302 301 300 299 298 296 295 293 292 290 289 288 287 285 284 282 281 280 279 277 275 273 270 268 268 268 268 269 269 269 268 268 269 270 268 266 265 264 260 259 257 249 241 236 234 235 237 240 243 243 240 238 237 236 236 239 239 238 239 242 245 247 248 249 250 250 250 250 251
306 306 308 309 309 309 308 307 307 307 306 306 306 305 305 304 303 302 301 300 298 297 295 294 292 290 288 287 286 284 283 281 279 278 277 276 275 273 271 269 266 266 266 266 266 266 266 265 265 267 268 267 265 264 261 256 256 256 252 244 237 234 235 237 239 240 239 237 236 236 236 238 240 239 238 239 242 245 246 247 248 248 249 251 251
305 307 308 309 309 308 308 308 308 308 308 308 308 307 306 306 305 304 303 302 301 300 298 297 295 293 291 289 287 285 283 282 280 277 275 273 272 271 270 269 266 264 264 264 263 262 263 263 263 263 264 265 265 265 263 258 253 255 258 255 247 239 235 234 235 237 237 236 236 237 237 238 240 240 239 240 242 246 247 246 247 249 250 251 252
305 307 308 309 309 309 309 310 310 310 310 310 310 309 309 309 308 308 307 306 305 304 303 301 299 297 295 292 290 287 285 282 280 278 275 273 271 269 267 266 265 263 262 261 261 260 260 260 260 260 260 262 263 264 265 261 255 253 255 257 257 250 241 236 234 235 236 237 237 238 238 239 241 241 241 242 245 247 248 247 248 250 251 253 255
307 308 309 310 310 310 310 310 311 311 312 312 313 313 313 313 313 312 312 311 310 308 307 305 303 301 299 296 294 291 288 285 282 279 276 273 270 268 266 264 263 261 260 258 258 257 257 257 257 257 258 259 260 261 263 262 257 254 253 254 256 254 246 240 237 236 237 238 239 239 239 239 241 242 243 244 245 245 246 246 247 250 253 255 256
308 309 309 310 310 310 311 312 312 313 314 314 315 316 316 316 316 315 315 314 313 311 310 309 307 305 302 300 297 294 291 287 284 281 277 273 270 267 265 263 261 259 256 255 255 255 255 255 255 255 255 256 257 258 259 260 258 255 254 253 255 253 247 242 240 239 240 240 241 242 242 241 241 243 245 245 244 245 246 246 246 248 252 254 255
309 309 309 310 310 311 312 313 313 314 314 315 316 317 317 317 317 317 316 315 314 314 313 311 310 308 306 304 301 298 294 290 286 282 279 275 271 266 263 260 258 257 254 252 251 251 252 253 253 253 253 254 255 257 257 257 257 256 255 254 254 254 251 246 243 242 241 241 240 241 243 243 242 242 244 246 246 246 248 249 248 246 248 251 252
308 308 309 309 310 311 312 312 313 314 315 316 318 318 319 319 318 318 317 317 316 316 315 314 313 312 310 308 305 302 299 295 290 286 281 276 272 267 262 258 255 254 252 249 248 247 248 249 251 252 253 253 253 253 254 255 256 257 257 255 254 253 251 248 246 243 241 240 240 240 242 243 242 241 243 245 246 246 247 249 248 245 246 249 250
307 307 308 309 310 311 311 312 314 316 317 319 320 320 320 320 320 320 319 319 319 318 318 318 317 316 314 312 310 307 304 300 295 290 284 278 273 268 262 257 252 250 248 247 245 244 244 246 247 250 251 251 250 250 251 253 254 256 256 255 254 253 252 251 249 246 243 241 241 240 240 241 241 241 242 244 246 247 247 247 245 243 244 247 249
Height
5848 5847 5847 5846 5845 5845 5844 5843 5842 5841 5840 5840 5839 5838 5838 5837 5837 5836 5836 5836 5836 5836 5835 5834 5832 5832 5831 5830 5829 5828 5828 5828 5829 5829 5829 5829 5829 5828 5828 5828 5828 5828 5828 5828 5828 5827 5826 5825 5826 5826 5825 5825 5824 5824 5823 5822 5821 5821 5820 5819 5818 5817 5816 5816 5816 5815 5815 5816 5816 5816 5817 5817 5817 5818 5818 5818 5818 5818 5818 5818 5817 5817 5817 5817 5817
5847 5846 5846 5845 5845 5844 5844 5843 5842 5840 5840 5839 5838 5837 5837 5836 5835 5834 5834 5834 5834 5834 5834 5833 5831 5830 5830 5829 5827 5827 5827 5827 5827 5827 5828 5827 5827 5827 5827 5826 5827 5827 5827 5827 5827 5826 5825 5824 5824 5824 5824 5824 5823 5823 5822 5821 5820 5820 5819 5818 5818 5817 5816 5815 5815 5815 5815 5815 5815 5815 5816 5816 5816 5817 5817 5817 5817 5817 5817 5817 5817 5817 5817 5817 5817
5846 5846 5845 5845 5844 5843 5843 5842 5841 5840 5839 5839 5838 5837 5836 5835 5834 5833 5832 5832 5832 5832 5832 5831 5830 5829 5828 5827 5826 5825 5825 5825 5825 5825 5826 5826 5825 5825 5825 5825 5825 5825 5825 5825 5825 5825 5825 5824 5823 5823 5823 5823 5822 5822 5821 5820 5819 5819 5818 5817 5817 5816 5816 5815 5815 5814 5814 5814 5814 5815 5815 5815 5816 5816 5816 5816 5817 5817 5817 5817 5817 5816 5816 5817 5817
5845 5845 5844 5844 5843 5843 5842 5841 5840 5839 5839 5838 5837 5837 5836 5834 5833 5832 5831 5830 5830 5830 5829 5829 5828 5827 5826 5825 5824 5823 5822 5822 5823 5823 5823 5823 5823 5823 5823 5823 5823 5823 5823 5823 5824 5824 5823 5823 5822 5822 5822 5821 5821 5820 5820 5819 5818 5818 5817 5817 5816 5816 5815 5815 5814 5814 5814 5814 5814 5814 5814 5814 5815 5815 5815 5816 5816 5816 5816 5816 5816 5816 5816 5816 5816
5844 5843 5843 5843 5842 5842 5841 5841 5840 5839 5838 5837 5837 5836 5835 5834 5833 5831 5830 5829 5828 5827 5827 5826 5826 5825 5824 5823 5822 5821 5820 5820 5820 5820 5820 5821 5821 5821 5822 5821 5821 5821 5821 5821 5821 5822 5822 5821 5820 5820 5820 5820 5820 5819 5819 5818 5817 5817 5816 5816 5815 5815 5815 5814 5814 5813 5813 5813 5813 5813 5813 5814 5814 5814 5814 5815 5815 5815 5815 5815 5815 5816 5816 5816 5816
5843 5842 5842 5842 5841 5841 5840 5840 5839 5838 5837 5836 5836 5835 5834 5833 5832 5830 5829 5828 5826 5825 5824 5824 5823 5822 5822 5821 5820 5819 5818 5818 5818 5818 5818 5818 5818 5819 5819 5819 5819 5819 5819 5819 5819 5820 5820 5819 5819 5818 5818 5818 5818 5818 5817 5817 5816 5816 5815 5815 5814 5814 5814 5814 5813 5813 5813 5813 5813 5813 5813 5813 5813 5813 5814 5814 5814 5814 5814 5814 5815 5815 5815 5815 5816
5842 5841 5841 5841 5840 5840 5839 5839 5838 5837 5836 5835 5834 5834 5833 5831 5830 5829 5827 5826 5825 5823 5822 5821 5821 5820 5819 5818 5817 5816 5816 5816 5815 5815 5815 5815 5816 5816 5816 5816 5816 5817 5817 5817 5817 5818 5818 5818 5817 5817 5816 5816 5817 5816 5816 5816 5815 5815 5814 5813 5813 5813 5813 5813 5813 5812 5812 5812 5812 5812 5812 5812 5812 5813 5813 5813 5813 5813 5813 5813 5814 5814 5814 5815 5815
5841 5840 5840 5839 5839 5839 5838 5837 5837 5836 5835 5834 5833 5832 5831 5830 5829 5827 5826 5824 5823 5822 5821 5820 5819 5817 5816 5816 5815 5814 5813 5813 5813 5813 5813 5813 5813 5813 5813 5814 5814 5814 5815 5815 5816 5816 5816 5816 5816 5815 5815 5815 5815 5815 5814 5814 5814 5813 5813 5812 5812 5812 5812 5812 5812 5811 5811 5811 5812 5812 5812 5812 5812 5812 5812 5812 5812 5812 5812 5812 5812 5813 5813 5814 5814
5839 5839 5838 5838 5838 5837 5836 5836 5835 5834 5834 5833 5832 5831 5830 5828 5827 5826 5825 5823 5821 5820 5819 5818 5817 5815 5814 5813 5813 5812 5811 5811 5811 5811 5811 5811 5811 5811 5811 5811 5812 5812 5812 5813 5813 5814 5814 5814 5814 5814 5813 5813 5813 5813 5813 5813 5812 5812 5811 5811 5811 5810 5811 5811 5811 5811 5811 5811 5811 5811 5811 5811 5811 5811 5811 5811 5811 5811 5811 5811 5812 5812 5812 5813 5813
5838 5837 5837 5836 5836 5835 5835 5834 5833 5833 5832 5831 5831 5829 5828 5827 5825 5824 5823 5822 5820 5818 5817 5817 5815 5814 5813 5811 5810 5810 5809 5808 5808 5808 5809 5809 5809 5809 5809 5809 5809 5810 5810 5810 5811 5811 5812 5812 5812 5812 5812 5811 5811 5811 5811 5811 5811 5810 5810 5809 5809 5809 5809 5809 5809 5809 5810 5810 5810 5810 5810 5810 5810 5810 5810 5810 5811 5811 5811 5811 5811 5811 5811 5812 5812
5836 5836 5835 5834 5834 5833 5833 5832 5832 5831 5830 5830 5829 5828 5827 5825 5824 5822 5821 5820 5818 5816 5815 5814 5812 5811 5810 5809 5808 5808 5807 5806 5806 5806 5806 5806 5806 5806 5806 5806 5806 5807 5807 5808 5808 5809 5809 5809 5810 5810 5810 5810 5809 5809 5809 5809 5809 5809 5808 5808 5808 5808 5808 5808 5808 5808 5808 5809 5809 5809 5809 5809 5809 5809 5809 5809 5810 5810 5810 5810 5810 5810 5811 5811 5811
5834 5834 5833 5832 5832 5831 5831 5830 5830 5829 5828 5827 5826 5826 5825 5824 5822 5821 5819 5818 5816 5814 5812 5811 5809 5808 5807 5806 5805 5805 5805 5804 5804 5804 5804 5804 5803 5803 5803 5804 5804 5804 5804 5805 5805 5806 5806 5807 5807 5807 5808 5808 5807 5807 5807 5807 5807 5807 5807 5806 5806 5806 5806 5806 5806 5807 5807 5808 5808 5808 5808 5808 5808 5808 5808 5808 5809 5809 5809 5809 5809 5809 5810 5810 5810
5833 5832 5831 5831 5830 5829 5829 5828 5828 5827 5826 5825 5824 5823 5822 5821 5820 5819 5818 5816 5814 5812 5810 5808 5807 5805 5804 5803 5802 5802 5802 5802 5802 5802 5801 5801 5800 5800 5800 5801 5801 5801 5802 5802 5803 5803 5803 5804 5805 5805 5805 5805 5805 5805 5805 5805 5805 5805 5805 5805 5805 5804 5805 5805 5805 5805 5805 5806 5806 5807 5807 5806 5806 5807 5807 5807 5808 5808 5808 5808 5809 5809 5809 5809 5809
5831 5830 5830 5829 5828 5827 5827 5826 5825 5825 5823 5822 5821 5820 5819 5818 5818 5816 5815 5814 5812 5810 5808 5806 5805 5803 5802 5801 5800 5800 5800 5800 5799 5798 5798 5798 5798 5798 5797 5798 5797 5798 5799 5799 5800 5800 5800 5801 5802 5802 5803 5803 5803 5803 5803 5803 5803 5803 5803 5803 5803 5803 5803 5803 5803 5803 5803 5804 5805 5805 5805 5805 5805 5805 5806 5806 5806 5807 5807 5807 5808 5808 5808 5808 5808
5829 5828 5828 5827 5826 5825 5825 5824 5823 5823 5822 5820 5819 5818 5817 5816 5815 5814 5813 5811 5810 5808 5806 5805 5803 5802 5800 5800 5799 5798 5798 5797 5796 5795 5794 5795 5795 5795 5794 5794 5794 5794 5796 5796 5797 5797 5797 5798 5799 5799 5800 5800 5800 5801 5801 5801 5801 5801 5800 5800 5801 5801 5801 5801 5801 5801 5801 5802 5803 5803 5803 5804 5804 5804 5804 5805 5805 5806 5806 5806 5807 5807 5807 5807 5807
5827 5826 5826 5825 5824 5823 5823 5822 5821 5821 5820 5818 5817 5816 5815 5814 5813 5812 5810 5809 5808 5805 5803 5802 5801 5799 5798 5797 5796 5796 5795 5794 5793 5792 5791 5791 5791 5791 5791 5791 5790 5791 5792 5793 5793 5794 5794 5795 5796 5796 5797 5797 5797 5798 5798 5798 5798 5798 5798 5798 5798 5799 5799 5799 5799 5799 5799 5800 5800 5801 5802 5802 5802 5802 5803 5803 5803 5804 5805 5805 5806 5806 5806 5806 5806
5825 5824 5824 5823 5822 5821 5821 5820 5819 5818 5817 5816 5815 5814 5812 5811 5810 5809 5808 5807 5806 5804 5801 5799 5798 5797 5796 5795 5793 5793 5792 5790 5789 5789 5787 5787 5787 5787 5787 5787 5787 5787 5788 5789 5790 5790 5791 5791 5792 5792 5793 5794 5794 5795 5795 5795 5796 5796 5796 5796 5796 5796 5797 5797 5797 5797 5797 5798 5798 5799 5800 5800 5800 5801 5801 5801 5802 5803 5803 5804 5804 5805 5805 5805 5805
5823 5823 5822 5821 5820 5819 5818 5817 5816 5816 5815 5814 5813 5811 5810 5809 5808 5807 5806 5805 5803 5802 5799 5797 5795 5794 5792 5792 5791 5789 5788 5788 5786 5786 5784 5783 5783 5783 5783 5783 5783 5783 5784 5785 5786 5786 5787 5787 5788 5789 5790 5791 5791 5791 5792 5792 5793 5793 5794 5794 5794 5794 5795 5795 5795 5795 5795 5795 5796 5797 5798 5798 5798 5799 5799 5800 5800 5801 5802 5802 5803 5803 5804 5804 5804
5822 5821 5820 5819 5818 5817 5816 5815 5814 5813 5812 5811 5810 5808 5807 5806 5805 5804 5803 5802 5800 5799 5797 5794 5793 5791 5789 5788 5787 5786 5785 5784 5783 5782 5781 5780 5779 5779 5779 5779 5779 5780 5780 5781 5781 5782 5783 5783 5784 5785 5786 5787 5788 5788 5789 5789 5790 5790 5791 5791 5791 5791 5792 5793 5793 5793 5793 5793 5794 5794 5795 5796 5796 5797 5797 5798 5798 5799 5800 5801 5801 5802 5803 5803 5803
5819 5819 5818 5817 5816 5815 5814 5813 5812 5811 5810 5809 5807 5806 5805 5804 5802 5801 5800 5799 5798 5796 5794 5792 5791 5789 5787 5785 5784 5782 5781 5780 5779 5778 5778 5777 5776 5775 5775 5775 5775 5776 5777 5777 5777 5778 5779 5779 5780 5781 5782 5783 5784 5785 5785 5786 5786 5787 5788 5788 5789 5789 5789 5790 5790 5791 5791 5791 5791 5792 5793 5794 5794 5795 5795 5795 5796 5797 5798 5799 5799 5800 5801 5801 5802
5817 5816 5815 5815 5814 5813 5812 5811 5810 5809 5807 5806 5805 5804 5803 5801 5800 5799 5797 5796 5794 5793 5791 5790 5788 5786 5784 5783 5781 5779 5778 5777 5775 5774 5774 5774 5773 5772 5771 5771 5772 5773 5773 5773 5774 5774 5774 5775 5776 5777 5778 5779 5780 5781 5782 5782 5783 5784 5785 5785 5786 5786 5787 5787 5788 5788 5789 5789 5789 5790 5791 5791 5792 5792 5793 5793 5794 5794 5795 5796 5797 5798 5799 5799 5800
5815 5814 5813 5812 5811 5811 5810 5809 5808 5807 5805 5804 5802 5801 5800 5799 5797 5796 5794 5793 5791 5790 5788 5787 5785 5783 5781 5779 5778 5776 5775 5773 5772 5771 5770 5770 5770 5769 5768 5768 5768 5769 5769 5769 5769 5769 5770 5770 5771 5774 5775 5775 5776 5777 5778 5779 5779 5780 5781 5782 5783 5783 5784 5784 5785 5786 5786 5786 5787 5788 5788 5789 5789 5790 5790 5791 5791 5792 5793 5794 5795 5795 5796 5797 5798
5812 5812 5811 5810 5809 5808 5807 5806 5805 5804 5803 5801 5800 5799 5797 5796 5794 5793 5792 5790 5789 5787 5785 5784 5782 5780 5778 5776 5775 5773 5772 5770 5769 5768 5767 5766 5765 5765 5765 5764 5764 5764 5764 5764 5764 5764 5765 5766 5767 5769 5770 5770 5772 5773 5774 5775 5776 5777 5777 5779 5780 5780 5781 5781 5782 5783 5783 5784 5785 5785 5785 5786 5787 5787 5788 5788 5789 5789 5790 5791 5792 5793 5794 5795 5795
5810 5809 5808 5807 5806 5805 5804 5803 5802 5801 5800 5798 5797 5796 5794 5793 5792 5790 5789 5787 5786 5784 5782 5781 5779 5777 5775 5773 5771 5770 5768 5767 5766 5765 5764 5762 5761 5761 5761 5759 5760 5760 5759 5759 5759 5759 5760 5761 5763 5765 5766 5766 5768 5769 5770 5771 5772 5773 5774 5775 5776 5776 5777 5778 5779 5780 5780 5781 5782 5782 5783 5783 5784 5785 5785 5786 5786 5787 5787 5789 5790 5790 5791 5792 5793
5807 5806 5805 5804 5803 5802 5801 5800 5799 5798 5797 5796 5794 5793 5792 5790 5789 5787 5786 5784 5783 5781 5779 5778 5776 5774 5772 5770 5768 5767 5765 5763 5762 5761 5760 5759 5757 5757 5757 5755 5755 5756 5755 5754 5754 5754 5755 5757 5759 5761 5761 5762 5764 5765 5766 5767 5768 5768 5769 5771 5772 5773 5774 5775 5775 5776 5777 5778 5779 5780 5780 5780 5781 5782 5782 5783 5783 5784 5785 5786 5787 5788 5788 5789 5790
5805 5804 5802 5801 5800 5799 5798 5797 5796 5795 5794 5793 5791 5790 5789 5787 5786 5785 5783 5781 5780 5778 5776 5774 5773 5771 5770 5768 5766 5764 5762 5760 5759 5757 5756 5755 5753 5753 5752 5751 5751 5751 5751 5751 5749 5749 5751 5752 5754 5755 5756 5757 5758 5760 5761 5762 5763 5764 5765 5766 5768 5769 5770 5771 5772 5773 5774 5775 5775 5776 5777 5777 5778 5779 5780 5780 5781 5781 5782 5783 5784 5785 5786 5787 5788
5802 5801 5800 5798 5797 5796 5795 5794 5793 5792 5791 5790 5788 5787 5786 5784 5783 5782 5780 5779 5777 5775 5774 5772 5770 5769 5767 5765 5763 5761 5759 5758 5756 5754 5753 5751 5750 5749 5748 5747 5747 5746 5746 5746 5745 5745 5747 5748 5748 5750 5751 5752 5753 5755 5757 5758 5758 5759 5760 5762 5764 5765 5766 5768 5768 5769 5770 5771 5772 5773 5774 5774 5775 5776 5777 5778 5778 5778 5779 5780 5781 5781 5783 5784 5785
5799 5798 5797 5796 5794 5793 5792 5791 5789 5788 5787 5786 5785 5784 5782 5781 5780 5778 5777 5775 5774 5772 5771 5769 5767 5766 5764 5762 5761 5758 5756 5755 5754 5752 5750 5748 5747 5745 5744 5743 5742 5742 5742 5742 5741 5741 5742 5742 5744 5746 5747 5748 5749 5750 5751 5753 5754 5755 5756 5758 5759 5761 5762 5763 5765 5765 5767 5768 5768 5769 5770 5771 5772 5773 5774 5775 5775 5776 5776 5777 5778 5778 5779 5780 5781
5796 5795 5794 5793 5791 5790 5789 5787 5786 5785 5784 5783 5782 5780 5779 5778 5776 5775 5774 5772 5771 5769 5768 5767 5765 5763 5761 5759 5757 5755 5753 5752 5750 5748 5747 5745 5744 5742 5741 5739 5738 5737 5738 5738 5738 5737 5737 5737 5739 5741 5742 5743 5744 5745 5746 5749 5750 5750 5751 5753 5754 5755 5757 5759 5760 5761 5762 5764 5765 5766 5766 5767 5768 5769 5771 5771 5772 5773 5773 5774 5774 5775 5776 5777 5778
5793 5792 5791 5790 5789 5787 5786 5785 5783 5782 5781 5779 5778 5777 5775 5774 5773 5771 5770 5769 5767 5766 5764 5763 5762 5760 5758 5756 5754 5752 5750 5748 5747 5745 5743 5742 5740 5739 5738 5736 5735 5734 5733 5734 5734 5733 5732 5733 5734 5735 5737 5738 5739 5739 5741 5743 5744 5744 5746 5747 5748 5751 5752 5754 5756 5757 5758 5760 5761 5762 5763 5764 5765 5766 5767 5768 5769 5770 5770 5770 5771 5772 5773 5774 5775
5791 5789 5788 5787 5786 5785 5783 5782 5780 5779 5777 5776 5774 5773 5772 5770 5769 5768 5766 5765 5763 5762 5760 5759 5758 5757 5755 5753 5751 5749 5748 5745 5744 5742 5740 5738 5737 5736 5734 5733 5731 5730 5729 5729 5730 5730 5728 5728 5729 5730 5731 5733 5733 5733 5735 5737 5737 5738 5741 5743 5744 5746 5747 5748 5751 5752 5753 5755 5757 5758 5759 5760 5761 5762 5764 5764 5765 5766 5767 5767 5768 5769 5769 5770 5771
5788 5787 5785 5784 5783 5782 5780 5779 5777 5776 5774 5772 5771 5769 5768 5767 5765 5764 5762 5761 5759 5758 5756 5755 5754 5753 5751 5749 5747 5746 5745 5743 5740 5738 5737 5735 5734 5732 5731 5729 5728 5726 5725 5725 5725 5726 5724 5724 5724 5725 5726 5728 5728 5728 5730 5731 5731 5733 5735 5738 5740 5742 5742 5743 5746 5748 5749 5750 5752 5754 5755 5755 5757 5758 5759 5760 5761 5762 5763 5764 5765 5765 5766 5766 5767
5784 5783 5782 5781 5779 5778 5776 5775 5773 5772 5770 5769 5767 5765 5764 5762 5761 5760 5758 5757 5755 5754 5752 5750 5749 5748 5747 5745 5744 5742 5741 5739 5737 5735 5733 5732 5730 5729 5728 5726 5725 5723 5721 5721 5721 5721 5720 5720 5720 5721 5722 5723 5723 5723 5725 5725 5725 5727 5729 5732 5735 5736 5736 5738 5741 5743 5745 5746 5747 5749 5750 5751 5752 5753 5755 5756 5757 5759 5760 5760 5761 5761 5762 5763 5763
5781 5780 5778 5777 5775 5774 5772 5771 5769 5768 5766 5765 5763 5761 5760 5758 5756 5755 5754 5752 5751 5749 5748 5746 5744 5743 5742 5741 5739 5738 5737 5735 5734 5732 5730 5728 5726 5725 5724 5722 5721 5720 5718 5717 5717 5716 5715 5715 5715 5716 5716 5717 5718 5719 5719 5719 5720 5721 5723 5726 5729 5730 5730 5733 5736 5738 5740 5741 5742 5743 5745 5746 5747 5748 5750 5752 5753 5754 5755 5756 5757 5757 5758 5759 5760
5777 5776 5774 5773 5771 5770 5768 5767 5765 5764 5762 5760 5759 5757 5755 5754 5752 5750 5749 5747 5746 5744 5743 5741 5740 5738 5737 5735 5734 5733 5732 5731 5729 5727 5726 5724 5723 5721 5720 5719 5717 5716 5715 5713 5712 5712 5711 5710 5710 5711 5711 5712 5713 5714 5714 5714 5715 5716 5718 5721 5724 5725 5726 5727 5730 5733 5734 5736 5737 5738 5740 5741 5742 5743 5745 5747 5749 5750 5751 5752 5753 5753 5754 5755 5756
5773 5771 5770 5768 5767 5765 5764 5762 5761 5759 5757 5756 5754 5752 5751 5749 5747 5746 5744 5742 5741 5739 5738 5736 5735 5733 5732 5730 5728 5727 5726 5725 5724 5723 5721 5720 5718 5717 5716 5715 5713 5713 5711 5709 5708 5707 5706 5706 5706 5706 5706 5707 5707 5708 5707 5708 5709 5711 5713 5716 5718 5720 5721 5722 5724 5727 5729 5730 5731 5733 5735 5736 5738 5738 5740 5742 5744 5745 5746 5747 5748 5749 5750 5751 5751
5769 5767 5766 5764 5762 5761 5759 5758 5756 5754 5753 5751 5749 5748 5746 5744 5742 5741 5739 5737 5735 5734 5732 5731 5729 5728 5726 5725 5723 5722 5720 5719 5719 5718 5716 5715 5713 5712 5711 5710 5709 5708 5707 5706 5704 5703 5702 5702 5701 5701 5701 5701 5702 5702 5701 5702 5704 5705 5707 5710 5713 5714 5715 5716 5718 5720 5722 5724 5726 5728 5730 5731 5733 5734 5735 5737 5739 5741 5742 5743 5744 5745 5746 5746 5747
5765 5763 5761 5760 5758 5756 5755 5753 5751 5750 5748 5746 5744 5742 5740 5739 5737 5735 5733 5731 5729 5728 5726 5725 5723 5721 5720 5719 5717 5716 5715 5713 5712 5712 5711 5710 5709 5707 5706 5705 5704 5703 5702 5701 5700 5698 5697 5697 5697 5696 5696 5696 5697 5697 5696 5697 5698 5700 5702 5705 5707 5709 5710 5711 5713 5714 5717 5719 5722 5723 5725 5726 5728 5729 5731 5732 5734 5735 5737 5738 5739 5740 5741 5742 5743
5761 5759 5757 5755 5753 5752 5750 5748 5746 5745 5743 5741 5739 5737 5735 5733 5731 5729 5727 5725 5723 5721 5720 5718 5717 5715 5713 5712 5711 5710 5708 5707 5706 5705 5705 5704 5703 5702 5701 5700 5699 5698 5697 5696 5695 5694 5693 5692 5692 5692 5691 5691 5692 5692 5692 5692 5693 5695 5697 5699 5702 5704 5705 5707 5709 5710 5712 5714 5716 5717 5719 5720 5722 5724 5726 5727 5728 5730 5731 5733 5734 5735 5736 5737 5738
5756 5754 5753 5751 5749 5747 5745 5743 5742 5740 5738 5736 5734 5731 5729 5727 5725 5723 5721 5719 5717 5715 5713 5711 5710 5708 5707 5705 5704 5703 5702 5701 5700 5699 5698 5697 5697 5697 5695 5694 5693 5693 5692 5691 5690 5689 5689 5688 5688 5688 5687 5687 5687 5687 5687 5687 5688 5690 5692 5694 5696 5698 5699 5702 5705 5706 5706 5707 5710 5712 5713 5715 5718 5720 5721 5721 5723 5725 5727 5728 5729 5730 5731 5732 5733
5752 5750 5748 5746 5744 5743 5741 5739 5737 5735 5733 5731 5729 5727 5725 5722 5720 5718 5716 5714 5712 5710 5708 5705 5703 5701 5700 5698 5697 5695 5694 5693 5692 5692 5691 5690 5690 5690 5689 5688 5687 5687 5686 5686 5685 5684 5684 5683 5683 5683 5682 5682 5682 5682 5682 5682 5683 5685 5686 5689 5691 5692 5694 5697 5699 5701 5701 5702 5705 5708 5708 5710 5714 5716 5716 5715 5717 5720 5721 5722 5723 5725 5726 5727 5728
5748 5746 5744 5742 5740 5738 5736 5734 5732 5730 5728 5726 5724 5722 5719 5717 5715 5713 5710 5708 5706 5704 5702 5700 5697 5695 5693 5691 5689 5688 5687 5686 5685 5684 5683 5682 5682 5682 5683 5682 5681 5680 5680 5680 5680 5679 5678 5678 5678 5677 5678 5677 5676 5676 5677 5678 5678 5679 5680 5683 5685 5687 5689 5690 5692 5694 5696 5697 5699 5701 5702 5703 5707 5710 5710 5710 5712 5714 5715 5717 5718 5720 5722 5722 5722
5743 5741 5739 5737 5735 5733 5731 5729 5727 5725 5723 5721 5719 5716 5714 5711 5709 5706 5704 5702 5699 5697 5695 5693 5691 5689 5686 5684 5682 5680 5679 5678 5677 5676 5675 5675 5674 5674 5675 5675 5674 5674 5674 5674 5673 5673 5673 5673 5673 5672 5672 5672 5671 5671 5672 5672 5673 5673 5675 5677 5679 5680 5682 5684 5686 5688 5689 5691 5692 5694 5696 5697 5700 5703 5704 5705 5706 5708 5710 5712 5713 5715 5716 5716 5716
5739 5737 5735 5733 5731 5729 5727 5725 5723 5721 5718 5716 5713 5710 5708 5705 5702 5700 5697 5695 5693 5690 5688 5686 5683 5681 5679 5677 5674 5672 5670 5669 5668 5668 5667 5666 5666 5666 5666 5667 5666 5666 5666 5667 5667 5667 5667 5666 5667 5667 5667 5667 5666 5665 5666 5667 5666 5667 5668 5670 5672 5674 5675 5678 5680 5682 5683 5684 5686 5688 5690 5691 5693 5696 5698 5699 5700 5702 5704 5706 5707 5708 5710 5710 5711
5735 5733 5731 5729 5727 5725 5723 5720 5718 5715 5713 5710 5707 5704 5702 5699 5696 5693 5691 5688 5686 5684 5681 5679 5676 5674 5672 5669 5667 5665 5662 5660 5659 5658 5658 5657 5657 5657 5657 5658 5658 5658 5658 5659 5660 5660 5660 5660 5660 5661 5661 5660 5660 5660 5660 5661 5661 5662 5663 5664 5665 5667 5668 5671 5674 5675 5677 5679 5680 5682 5684 5686 5687 5690 5692 5693 5694 5696 5698 5699 5701 5702 5704 5705 5705
5731 5729 5727 5725 5723 5720 5718 5716 5713 5710 5707 5704 5702 5699 5696 5693 5691 5688 5685 5682 5680 5677 5674 5672 5669 5666 5663 5661 5659 5656 5654 5652 5650 5649 5648 5648 5647 5648 5648 5648 5649 5650 5651 5651 5651 5652 5653 5653 5654 5655 5655 5654 5655 5655 5655 5655 5656 5658 5658 5659 5660 5660 5662 5664 5667 5668 5670 5673 5675 5676 5679 5681 5682 5684 5686 5688 5689 5690 5692 5693 5695 5696 5698 5698 5699
5727 5725 5722 5720 5718 5716 5713 5711 5708 5705 5702 5700 5697 5694 5691 5688 5685 5682 5679 5676 5673 5670 5667 5664 5661 5658 5655 5652 5649 5647 5644 5642 5641 5639 5638 5638 5637 5638 5638 5639 5640 5641 5642 5643 5643 5644 5645 5646 5646 5648 5649 5649 5649 5649 5650 5650 5651 5652 5653 5654 5654 5655 5656 5658 5660 5662 5665 5667 5669 5670 5673 5675 5677 5678 5681 5682 5683 5685 5686 5688 5689 5690 5691 5692 5692
5722 5720 5718 5716 5714 5711 5709 5706 5703 5701 5698 5695 5693 5690 5687 5684 5681 5677 5674 5670 5667 5664 5660 5657 5653 5650 5647 5644 5640 5637 5634 5632 5630 5628 5627 5627 5627 5627 5628 5629 5629 5631 5633 5634 5635 5637 5637 5638 5639 5641 5642 5643 5643 5643 5644 5645 5646 5646 5648 5649 5649 5650 5651 5653 5655 5657 5660 5662 5663 5665 5667 5670 5671 5673 5675 5676 5678 5679 5681 5682 5683 5684 5685 5686 5686
5718 5716 5714 5712 5709 5707 5704 5702 5700 5697 5695 5692 5689 5686 5683 5680 5676 5673 5669 5665 5662 5658 5654 5650 5646 5642 5639 5635 5632 5628 5624 5621 5619 5617 5616 5615 5615 5616 5617 5618 5619 5620 5623 5625 5627 5628 5630 5630 5632 5634 5635 5637 5637 5638 5638 5639 5640 5641 5642 5644 5645 5645 5646 5648 5650 5652 5654 5656 5658 5659 5661 5663 5666 5667 5669 5671 5672 5673 5675 5676 5677 5678 5679 5680 5680
5714 5712 5710 5708 5705 5703 5701 5699 5696 5694 5691 5688 5685 5682 5679 5675 5672 5668 5665 5661 5657 5652 5648 5644 5640 5636 5631 5627 5623 5619 5615 5611 5608 5606 5604 5603 5603 5603 5605 5607 5609 5610 5612 5614 5617 5620 5622 5623 5625 5627 5628 5630 5631 5632 5632 5633 5634 5635 5637 5638 5639 5640 5641 5643 5645 5646 5648 5650 5652 5654 5655 5657 5660 5661 5663 5665 5666 5667 5669 5670 5671 5672 5672 5673 5673
5711 5709 5706 5704 5702 5700 5698 5695 5693 5690 5687 5684 5681 5678 5674 5671 5667 5664 5660 5656 5652 5648 5643 5639 5634 5629 5625 5620 5616 5611 5606 5602 5598 5594 5592 5591 5591 5591 5593 5595 5597 5600 5601 5604 5608 5611 5614 5615 5617 5619 5621 5623 5624 5625 5626 5627 5628 5630 5631 5632 5633 5635 5637 5638 5639 5640 5642 5644 5646 5647 5648 5650 5653 5655 5657 5658 5659 5660 5662 5663 5664 5665 5665 5666 5666